owner,sensor,date,latitude,longitude,vertical_datum,wind_speed,wind_to_direction,wind_speed_of_gust,qcFlag 
TCOON,ioos:station:TCOON:005:1,2009-02-01T00:00:00Z,27.6346,-97.2370,0.0,3.2,147.0,4.4,'11111222,11111222,11111222' 
TCOON,ioos:station:TCOON:005:1,2009-02-01T01:00:00Z,27.6346,-97.2370,0.0,3.1,163.0,4.1,'11111222,11111222,11111222' 
TCOON,ioos:station:TCOON:005:1,2009-02-01T03:00:00Z,27.6346,-97.2370,0.0,3.2,159.0,4.0,'11111222,11111222,11111222' 
TCOON,ioos:station:TCOON:005:1,2009-02-01T04:00:00Z,27.6346,-97.2370,0.0,3.3,163.0,4.1,'11111222,11111222,11111222' 
TCOON,ioos:station:TCOON:005:1,2009-02-01T05:00:00Z,27.6346,-97.2370,0.0,4.7,169.0,6.3,'11111222,11111222,11111222' 
TCOON,ioos:station:TCOON:005:1,2009-02-01T06:00:00Z,27.6346,-97.2370,0.0,4.0,172.0,5.0,'11111222,11111222,11111222' 
TCOON,ioos:station:TCOON:005:1,2009-02-01T07:00:00Z,27.6346,-97.2370,0.0,3.9,176.0,5.2,'11111222,11111222,11111222' 
TCOON,ioos:station:TCOON:005:1,2009-02-01T08:00:00Z,27.6346,-97.2370,0.0,4.2,169.0,5.6,'11111222,11111222,11111222' 
TCOON,ioos:station:TCOON:005:1,2009-02-01T09:00:00Z,27.6346,-97.2370,0.0,4.5,167.0,6.0,'11111222,11111222,11111222' 
TCOON,ioos:station:TCOON:005:1,2009-02-01T10:00:00Z,27.6346,-97.2370,0.0,3.5,169.0,5.0,'11111222,11111222,11111222' 
TCOON,ioos:station:TCOON:005:1,2009-02-01T11:00:00Z,27.6346,-97.2370,0.0,3.5,165.0,4.5,'11111222,11111222,11111222' 
TCOON,ioos:station:TCOON:005:1,2009-02-01T12:00:00Z,27.6346,-97.2370,0.0,2.2,155.0,3.0,'11111222,11111222,11111222' 
TCOON,ioos:station:TCOON:005:1,2009-02-01T13:00:00Z,27.6346,-97.2370,0.0,2.3,157.0,3.3,'11111222,11111222,11111222' 
TCOON,ioos:station:TCOON:005:1,2009-02-01T14:00:00Z,27.6346,-97.2370,0.0,3.2,158.0,4.1,'11111222,11111222,11111222' 
TCOON,ioos:station:TCOON:005:1,2009-02-01T15:00:00Z,27.6346,-97.2370,0.0,5.9,169.0,8.7,'11111222,11111222,11111222' 
TCOON,ioos:station:TCOON:005:1,2009-02-01T16:00:00Z,27.6346,-97.2370,0.0,6.7,166.0,8.3,'11111222,11111222,11111222' 
TCOON,ioos:station:TCOON:005:1,2009-02-01T17:00:00Z,27.6346,-97.2370,0.0,6.9,170.0,8.6,'11111222,11111222,11111222' 
TCOON,ioos:station:TCOON:005:1,2009-02-01T18:00:00Z,27.6346,-97.2370,0.0,6.1,168.0,8.0,'11111222,11111222,11111222' 
TCOON,ioos:station:TCOON:005:1,2009-02-01T19:00:00Z,27.6346,-97.2370,0.0,6.4,162.0,7.9,'11111222,11111222,11111222' 
TCOON,ioos:station:TCOON:005:1,2009-02-01T20:00:00Z,27.6346,-97.2370,0.0,6.6,160.0,8.6,'11111222,11111222,11111222' 
TCOON,ioos:station:TCOON:005:1,2009-02-01T21:00:00Z,27.6346,-97.2370,0.0,6.9,152.0,9.0,'11111222,11111222,11111222' 
TCOON,ioos:station:TCOON:005:1,2009-02-01T22:00:00Z,27.6346,-97.2370,0.0,7.4,143.0,10.0,'11111222,11111222,11111222' 
TCOON,ioos:station:TCOON:005:1,2009-02-01T23:00:00Z,27.6346,-97.2370,0.0,5.8,139.0,7.8,'11111222,11111222,11111222' 
TCOON,ioos:station:TCOON:005:1,2009-02-02T00:00:00Z,27.6346,-97.2370,0.0,5.2,141.0,6.4,'11111222,11111222,11111222' 
TCOON,ioos:station:TCOON:005:1,2009-02-02T01:00:00Z,27.6346,-97.2370,0.0,4.2,138.0,5.6,'11111222,11111222,11111222' 
TCOON,ioos:station:TCOON:005:1,2009-02-02T02:00:00Z,27.6346,-97.2370,0.0,4.8,152.0,7.1,'11111222,11111222,11111222' 
TCOON,ioos:station:TCOON:005:1,2009-02-02T03:00:00Z,27.6346,-97.2370,0.0,5.6,159.0,7.6,'11111222,11111222,11111222' 
TCOON,ioos:station:TCOON:005:1,2009-02-02T04:00:00Z,27.6346,-97.2370,0.0,5.1,162.0,7.2,'11111222,11111222,11111222' 
TCOON,ioos:station:TCOON:005:1,2009-02-02T05:00:00Z,27.6346,-97.2370,0.0,5.4,169.0,6.6,'11111222,11111222,11111222' 
TCOON,ioos:station:TCOON:005:1,2009-02-02T06:00:00Z,27.6346,-97.2370,0.0,4.7,179.0,6.1,'11111222,11111222,11111222' 
TCOON,ioos:station:TCOON:005:1,2009-02-02T07:00:00Z,27.6346,-97.2370,0.0,2.7,189.0,3.2,'11111222,11111222,11111222' 
TCOON,ioos:station:TCOON:005:1,2009-02-02T08:00:00Z,27.6346,-97.2370,0.0,2.5,226.0,3.0,'11111222,11111222,11111222' 
TCOON,ioos:station:TCOON:005:1,2009-02-02T09:00:00Z,27.6346,-97.2370,0.0,7.7,318.0,9.7,'11111222,11111222,11111222' 
TCOON,ioos:station:TCOON:005:1,2009-02-02T10:00:00Z,27.6346,-97.2370,0.0,6.7,320.0,7.8,'11111222,11111222,11111222' 
TCOON,ioos:station:TCOON:005:1,2009-02-02T11:00:00Z,27.6346,-97.2370,0.0,11.4,346.0,13.1,'11111222,11111222,11111222' 
TCOON,ioos:station:TCOON:005:1,2009-02-02T12:00:00Z,27.6346,-97.2370,0.0,11.7,351.0,14.2,'11111222,11111222,11111222' 
TCOON,ioos:station:TCOON:005:1,2009-02-02T13:00:00Z,27.6346,-97.2370,0.0,10.9,354.0,13.5,'11111222,11111222,11111222' 
TCOON,ioos:station:TCOON:005:1,2009-02-02T14:00:00Z,27.6346,-97.2370,0.0,14.0,346.0,15.9,'11111222,11111222,11111222' 
TCOON,ioos:station:TCOON:005:1,2009-02-02T15:00:00Z,27.6346,-97.2370,0.0,12.1,347.0,14.8,'11111222,11111222,11111222' 
TCOON,ioos:station:TCOON:005:1,2009-02-02T16:00:00Z,27.6346,-97.2370,0.0,9.9,354.0,12.5,'11111222,11111222,11111222' 
TCOON,ioos:station:TCOON:005:1,2009-02-02T17:00:00Z,27.6346,-97.2370,0.0,11.0,359.0,13.3,'11111222,11111222,11111222' 
TCOON,ioos:station:TCOON:005:1,2009-02-02T18:00:00Z,27.6346,-97.2370,0.0,8.7,358.0,11.4,'11111222,11111222,11111222' 
TCOON,ioos:station:TCOON:005:1,2009-02-02T19:00:00Z,27.6346,-97.2370,0.0,6.9,5.0,10.1,'11111222,11111222,11111222' 
TCOON,ioos:station:TCOON:005:1,2009-02-02T20:00:00Z,27.6346,-97.2370,0.0,5.2,2.0,7.5,'11111222,11111222,11111222' 
TCOON,ioos:station:TCOON:005:1,2009-02-02T21:00:00Z,27.6346,-97.2370,0.0,4.6,26.0,6.0,'11111222,11111222,11111222' 
TCOON,ioos:station:TCOON:005:1,2009-02-02T22:00:00Z,27.6346,-97.2370,0.0,3.9,28.0,4.8,'11111222,11111222,11111222' 
TCOON,ioos:station:TCOON:005:1,2009-02-02T23:00:00Z,27.6346,-97.2370,0.0,6.4,68.0,7.0,'11111222,11111222,11111222' 
TCOON,ioos:station:TCOON:005:1,2009-02-03T00:00:00Z,27.6346,-97.2370,0.0,5.1,58.0,5.8,'11111222,11111222,11111222' 
TCOON,ioos:station:TCOON:005:1,2009-02-03T01:00:00Z,27.6346,-97.2370,0.0,4.9,46.0,5.5,'11111222,11111222,11111222' 
TCOON,ioos:station:TCOON:005:1,2009-02-03T02:00:00Z,27.6346,-97.2370,0.0,3.8,38.0,8.7,'11111222,11111222,11111222' 
TCOON,ioos:station:TCOON:005:1,2009-02-03T03:00:00Z,27.6346,-97.2370,0.0,3.4,51.0,3.9,'11111222,11111222,11111222' 
TCOON,ioos:station:TCOON:005:1,2009-02-03T04:00:00Z,27.6346,-97.2370,0.0,3.9,43.0,4.3,'11111222,11111222,11111222' 
TCOON,ioos:station:TCOON:005:1,2009-02-03T05:00:00Z,27.6346,-97.2370,0.0,2.7,38.0,3.1,'11111222,11111222,11111222' 
TCOON,ioos:station:TCOON:005:1,2009-02-03T06:00:00Z,27.6346,-97.2370,0.0,3.4,22.0,3.8,'11111222,11111222,11111222' 
TCOON,ioos:station:TCOON:005:1,2009-02-03T07:00:00Z,27.6346,-97.2370,0.0,3.4,7.0,3.8,'11111222,11111222,11111222' 
TCOON,ioos:station:TCOON:005:1,2009-02-03T08:00:00Z,27.6346,-97.2370,0.0,3.4,11.0,3.6,'11111222,11111222,11111222' 
TCOON,ioos:station:TCOON:005:1,2009-02-03T09:00:00Z,27.6346,-97.2370,0.0,2.0,77.0,2.3,'11111222,11111222,11111222' 
TCOON,ioos:station:TCOON:005:1,2009-02-03T10:00:00Z,27.6346,-97.2370,0.0,1.6,49.0,1.8,'11111222,11111222,11111222' 
TCOON,ioos:station:TCOON:005:1,2009-02-03T11:00:00Z,27.6346,-97.2370,0.0,1.1,88.0,1.6,'11111222,11111222,11111222' 
TCOON,ioos:station:TCOON:005:1,2009-02-03T12:00:00Z,27.6346,-97.2370,0.0,0.1,142.0,0.2,'11111222,11111222,11111222' 
TCOON,ioos:station:TCOON:005:1,2009-02-03T13:00:00Z,27.6346,-97.2370,0.0,1.8,292.0,2.2,'11111222,11111222,11111222' 
TCOON,ioos:station:TCOON:005:1,2009-02-03T14:00:00Z,27.6346,-97.2370,0.0,1.9,302.0,2.6,'11111222,11111222,11111222' 
TCOON,ioos:station:TCOON:005:1,2009-02-03T15:00:00Z,27.6346,-97.2370,0.0,2.5,269.0,2.8,'11111222,11111222,11111222' 
TCOON,ioos:station:TCOON:005:1,2009-02-03T16:00:00Z,27.6346,-97.2370,0.0,1.6,268.0,2.2,'11111222,11111222,11111222' 
TCOON,ioos:station:TCOON:005:1,2009-02-03T17:00:00Z,27.6346,-97.2370,0.0,0.9,259.0,1.6,'11111222,11111222,11111222' 
TCOON,ioos:station:TCOON:005:1,2009-02-03T18:00:00Z,27.6346,-97.2370,0.0,3.9,191.0,5.0,'11111222,11111222,11111222' 
TCOON,ioos:station:TCOON:005:1,2009-02-03T19:00:00Z,27.6346,-97.2370,0.0,3.1,185.0,4.1,'11111222,11111222,11111222' 
TCOON,ioos:station:TCOON:005:1,2009-02-03T20:00:00Z,27.6346,-97.2370,0.0,4.2,161.0,5.5,'11111222,11111222,11111222' 
TCOON,ioos:station:TCOON:005:1,2009-02-03T21:00:00Z,27.6346,-97.2370,0.0,5.3,154.0,7.5,'11111222,11111222,11111222' 
TCOON,ioos:station:TCOON:005:1,2009-02-03T22:00:00Z,27.6346,-97.2370,0.0,5.3,146.0,7.0,'11111222,11111222,11111222' 
TCOON,ioos:station:TCOON:005:1,2009-02-03T23:00:00Z,27.6346,-97.2370,0.0,5.1,151.0,6.8,'11111222,11111222,11111222' 
TCOON,ioos:station:TCOON:005:1,2009-02-04T00:00:00Z,27.6346,-97.2370,0.0,3.6,136.0,4.5,'11111222,11111222,11111222' 
TCOON,ioos:station:TCOON:005:1,2009-02-04T01:00:00Z,27.6346,-97.2370,0.0,3.0,127.0,3.7,'11111222,11111222,11111222' 
TCOON,ioos:station:TCOON:005:1,2009-02-04T02:00:00Z,27.6346,-97.2370,0.0,2.3,136.0,2.8,'11111222,11111222,11111222' 
TCOON,ioos:station:TCOON:005:1,2009-02-04T03:00:00Z,27.6346,-97.2370,0.0,2.3,155.0,3.1,'11111222,11111222,11111222' 
TCOON,ioos:station:TCOON:005:1,2009-02-04T04:00:00Z,27.6346,-97.2370,0.0,2.2,163.0,2.7,'11111222,11111222,11111222' 
TCOON,ioos:station:TCOON:005:1,2009-02-04T05:00:00Z,27.6346,-97.2370,0.0,2.6,177.0,3.5,'11111222,11111222,11111222' 
TCOON,ioos:station:TCOON:005:1,2009-02-04T06:00:00Z,27.6346,-97.2370,0.0,3.1,197.0,3.7,'11111222,11111222,11111222' 
TCOON,ioos:station:TCOON:005:1,2009-02-04T07:00:00Z,27.6346,-97.2370,0.0,3.1,190.0,13.3,'11111222,11111222,11111222' 
TCOON,ioos:station:TCOON:005:1,2009-02-04T08:00:00Z,27.6346,-97.2370,0.0,2.7,198.0,3.1,'11111222,11111222,11111222' 
TCOON,ioos:station:TCOON:005:1,2009-02-04T09:00:00Z,27.6346,-97.2370,0.0,1.6,232.0,2.0,'11111222,11111222,11111222' 
TCOON,ioos:station:TCOON:005:1,2009-02-04T10:00:00Z,27.6346,-97.2370,0.0,1.3,241.0,1.5,'11111222,11111222,11111222' 
TCOON,ioos:station:TCOON:005:1,2009-02-04T11:00:00Z,27.6346,-97.2370,0.0,1.6,309.0,1.8,'11111222,11111222,11111222' 
TCOON,ioos:station:TCOON:005:1,2009-02-04T12:00:00Z,27.6346,-97.2370,0.0,3.5,347.0,4.0,'11111222,11111222,11111222' 
TCOON,ioos:station:TCOON:005:1,2009-02-04T13:00:00Z,27.6346,-97.2370,0.0,3.7,15.0,4.6,'11111222,11111222,11111222' 
TCOON,ioos:station:TCOON:005:1,2009-02-04T14:00:00Z,27.6346,-97.2370,0.0,5.6,30.0,6.5,'11111222,11111222,11111222' 
TCOON,ioos:station:TCOON:005:1,2009-02-04T15:00:00Z,27.6346,-97.2370,0.0,5.4,36.0,6.3,'11111222,11111222,11111222' 
TCOON,ioos:station:TCOON:005:1,2009-02-04T16:00:00Z,27.6346,-97.2370,0.0,4.9,28.0,5.9,'11111222,11111222,11111222' 
TCOON,ioos:station:TCOON:005:1,2009-02-04T17:00:00Z,27.6346,-97.2370,0.0,5.2,54.0,5.7,'11111222,11111222,11111222' 
TCOON,ioos:station:TCOON:005:1,2009-02-04T18:00:00Z,27.6346,-97.2370,0.0,6.6,51.0,7.8,'11111222,11111222,11111222' 
TCOON,ioos:station:TCOON:005:1,2009-02-04T19:00:00Z,27.6346,-97.2370,0.0,6.6,67.0,7.5,'11111222,11111222,11111222' 
TCOON,ioos:station:TCOON:005:1,2009-02-04T20:00:00Z,27.6346,-97.2370,0.0,7.6,76.0,8.6,'11111222,11111222,11111222' 
TCOON,ioos:station:TCOON:005:1,2009-02-04T21:00:00Z,27.6346,-97.2370,0.0,7.4,78.0,8.6,'11111222,11111222,11111222' 
TCOON,ioos:station:TCOON:005:1,2009-02-04T22:00:00Z,27.6346,-97.2370,0.0,7.5,78.0,9.0,'11111222,11111222,11111222' 
TCOON,ioos:station:TCOON:005:1,2009-02-04T23:00:00Z,27.6346,-97.2370,0.0,7.9,74.0,9.8,'11111222,11111222,11111222' 
TCOON,ioos:station:TCOON:005:1,2009-02-05T00:00:00Z,27.6346,-97.2370,0.0,7.1,70.0,8.3,'11111222,11111222,11111222' 
TCOON,ioos:station:TCOON:005:1,2009-02-05T01:00:00Z,27.6346,-97.2370,0.0,6.9,72.0,7.9,'11111222,11111222,11111222' 
TCOON,ioos:station:TCOON:005:1,2009-02-05T02:00:00Z,27.6346,-97.2370,0.0,6.9,69.0,7.8,'11111222,11111222,11111222' 
TCOON,ioos:station:TCOON:005:1,2009-02-05T03:00:00Z,27.6346,-97.2370,0.0,5.9,78.0,6.9,'11111222,11111222,11111222' 
TCOON,ioos:station:TCOON:005:1,2009-02-05T04:00:00Z,27.6346,-97.2370,0.0,5.7,86.0,6.6,'11111222,11111222,11111222' 
TCOON,ioos:station:TCOON:005:1,2009-02-05T05:00:00Z,27.6346,-97.2370,0.0,5.6,100.0,6.3,'11111222,11111222,11111222' 
TCOON,ioos:station:TCOON:005:1,2009-02-05T06:00:00Z,27.6346,-97.2370,0.0,5.2,109.0,6.0,'11111222,11111222,11111222' 
TCOON,ioos:station:TCOON:005:1,2009-02-05T07:00:00Z,27.6346,-97.2370,0.0,5.2,111.0,6.1,'11111222,11111222,11111222' 
TCOON,ioos:station:TCOON:005:1,2009-02-05T08:00:00Z,27.6346,-97.2370,0.0,4.3,124.0,5.7,'11111222,11111222,11111222' 
TCOON,ioos:station:TCOON:005:1,2009-02-05T09:00:00Z,27.6346,-97.2370,0.0,4.6,122.0,6.0,'11111222,11111222,11111222' 
TCOON,ioos:station:TCOON:005:1,2009-02-05T10:00:00Z,27.6346,-97.2370,0.0,3.0,123.0,3.6,'11111222,11111222,11111222' 
TCOON,ioos:station:TCOON:005:1,2009-02-05T11:00:00Z,27.6346,-97.2370,0.0,3.4,124.0,4.2,'11111222,11111222,11111222' 
TCOON,ioos:station:TCOON:005:1,2009-02-05T12:00:00Z,27.6346,-97.2370,0.0,3.1,145.0,4.2,'11111222,11111222,11111222' 
TCOON,ioos:station:TCOON:005:1,2009-02-05T13:00:00Z,27.6346,-97.2370,0.0,1.3,154.0,1.8,'11111222,11111222,11111222' 
TCOON,ioos:station:TCOON:005:1,2009-02-05T14:00:00Z,27.6346,-97.2370,0.0,1.4,110.0,1.5,'11111222,11111222,11111222' 
TCOON,ioos:station:TCOON:005:1,2009-02-05T15:00:00Z,27.6346,-97.2370,0.0,2.1,162.0,2.9,'11111222,11111222,11111222' 
TCOON,ioos:station:TCOON:005:1,2009-02-05T16:00:00Z,27.6346,-97.2370,0.0,1.6,239.0,1.9,'11111222,11111222,11111222' 
TCOON,ioos:station:TCOON:005:1,2009-02-05T17:00:00Z,27.6346,-97.2370,0.0,5.2,167.0,7.7,'11111222,11111222,11111222' 
TCOON,ioos:station:TCOON:005:1,2009-02-05T18:00:00Z,27.6346,-97.2370,0.0,5.6,167.0,8.0,'11111222,11111222,11111222' 
TCOON,ioos:station:TCOON:005:1,2009-02-05T19:00:00Z,27.6346,-97.2370,0.0,7.2,173.0,9.7,'11111222,11111222,11111222' 
TCOON,ioos:station:TCOON:005:1,2009-02-05T20:00:00Z,27.6346,-97.2370,0.0,6.1,140.0,7.6,'11111222,11111222,11111222' 
TCOON,ioos:station:TCOON:005:1,2009-02-05T21:00:00Z,27.6346,-97.2370,0.0,5.5,151.0,7.6,'11111222,11111222,11111222' 
TCOON,ioos:station:TCOON:005:1,2009-02-05T22:00:00Z,27.6346,-97.2370,0.0,5.6,136.0,6.9,'11111222,11111222,11111222' 
TCOON,ioos:station:TCOON:005:1,2009-02-05T23:00:00Z,27.6346,-97.2370,0.0,5.9,149.0,8.2,'11111222,11111222,11111222' 
TCOON,ioos:station:TCOON:005:1,2009-02-06T00:00:00Z,27.6346,-97.2370,0.0,4.0,145.0,5.2,'11111222,11111222,11111222' 
TCOON,ioos:station:TCOON:005:1,2009-02-06T01:00:00Z,27.6346,-97.2370,0.0,3.6,147.0,4.8,'11111222,11111222,11111222' 
TCOON,ioos:station:TCOON:005:1,2009-02-06T02:00:00Z,27.6346,-97.2370,0.0,3.5,151.0,5.0,'11111222,11111222,11111222' 
TCOON,ioos:station:TCOON:005:1,2009-02-06T03:00:00Z,27.6346,-97.2370,0.0,3.6,150.0,5.7,'11111222,11111222,11111222' 
TCOON,ioos:station:TCOON:005:1,2009-02-06T04:00:00Z,27.6346,-97.2370,0.0,4.6,152.0,6.4,'11111222,11111222,11111222' 
TCOON,ioos:station:TCOON:005:1,2009-02-06T05:00:00Z,27.6346,-97.2370,0.0,4.3,150.0,5.5,'11111222,11111222,11111222' 
TCOON,ioos:station:TCOON:005:1,2009-02-06T06:00:00Z,27.6346,-97.2370,0.0,5.5,147.0,7.2,'11111222,11111222,11111222' 
TCOON,ioos:station:TCOON:005:1,2009-02-06T07:00:00Z,27.6346,-97.2370,0.0,5.6,154.0,7.6,'11111222,11111222,11111222' 
TCOON,ioos:station:TCOON:005:1,2009-02-06T08:00:00Z,27.6346,-97.2370,0.0,5.2,158.0,8.4,'11111222,11111222,11111222' 
TCOON,ioos:station:TCOON:005:1,2009-02-06T09:00:00Z,27.6346,-97.2370,0.0,4.6,157.0,6.5,'11111222,11111222,11111222' 
TCOON,ioos:station:TCOON:005:1,2009-02-06T10:00:00Z,27.6346,-97.2370,0.0,5.3,156.0,7.4,'11111222,11111222,11111222' 
TCOON,ioos:station:TCOON:005:1,2009-02-06T11:00:00Z,27.6346,-97.2370,0.0,4.9,152.0,7.0,'11111222,11111222,11111222' 
TCOON,ioos:station:TCOON:005:1,2009-02-06T12:00:00Z,27.6346,-97.2370,0.0,5.8,153.0,7.8,'11111222,11111222,11111222' 
TCOON,ioos:station:TCOON:005:1,2009-02-06T13:00:00Z,27.6346,-97.2370,0.0,5.3,151.0,7.1,'11111222,11111222,11111222' 
TCOON,ioos:station:TCOON:005:1,2009-02-06T14:00:00Z,27.6346,-97.2370,0.0,4.8,149.0,6.8,'11111222,11111222,11111222' 
TCOON,ioos:station:TCOON:005:1,2009-02-06T15:00:00Z,27.6346,-97.2370,0.0,6.9,150.0,8.8,'11111222,11111222,11111222' 
TCOON,ioos:station:TCOON:005:1,2009-02-06T16:00:00Z,27.6346,-97.2370,0.0,7.5,145.0,11.1,'11111222,11111222,11111222' 
TCOON,ioos:station:TCOON:005:1,2009-02-06T17:00:00Z,27.6346,-97.2370,0.0,8.6,148.0,11.9,'11111222,11111222,11111222' 
TCOON,ioos:station:TCOON:005:1,2009-02-06T18:00:00Z,27.6346,-97.2370,0.0,8.1,145.0,10.5,'11111222,11111222,11111222' 
TCOON,ioos:station:TCOON:005:1,2009-02-06T19:00:00Z,27.6346,-97.2370,0.0,9.3,150.0,12.2,'11111222,11111222,11111222' 
TCOON,ioos:station:TCOON:005:1,2009-02-06T20:00:00Z,27.6346,-97.2370,0.0,9.9,143.0,12.8,'11111222,11111222,11111222' 
TCOON,ioos:station:TCOON:005:1,2009-02-06T21:00:00Z,27.6346,-97.2370,0.0,9.6,147.0,12.6,'11111222,11111222,11111222' 
TCOON,ioos:station:TCOON:005:1,2009-02-06T22:00:00Z,27.6346,-97.2370,0.0,6.7,145.0,9.7,'11111222,11111222,11111222' 
TCOON,ioos:station:TCOON:005:1,2009-02-06T23:00:00Z,27.6346,-97.2370,0.0,7.7,144.0,10.3,'11111222,11111222,11111222' 
TCOON,ioos:station:TCOON:005:1,2009-02-07T00:00:00Z,27.6346,-97.2370,0.0,6.5,141.0,8.4,'11111222,11111222,11111222' 
TCOON,ioos:station:TCOON:005:1,2009-02-07T01:00:00Z,27.6346,-97.2370,0.0,5.5,141.0,7.0,'11111222,11111222,11111222' 
TCOON,ioos:station:TCOON:005:1,2009-02-07T02:00:00Z,27.6346,-97.2370,0.0,6.3,144.0,8.0,'11111222,11111222,11111222' 
TCOON,ioos:station:TCOON:005:1,2009-02-07T03:00:00Z,27.6346,-97.2370,0.0,6.6,139.0,9.7,'11111222,11111222,11111222' 
TCOON,ioos:station:TCOON:005:1,2009-02-07T04:00:00Z,27.6346,-97.2370,0.0,6.6,147.0,9.2,'11111222,11111222,11111222' 
TCOON,ioos:station:TCOON:005:1,2009-02-07T05:00:00Z,27.6346,-97.2370,0.0,6.9,151.0,8.9,'11111222,11111222,11111222' 
TCOON,ioos:station:TCOON:005:1,2009-02-07T06:00:00Z,27.6346,-97.2370,0.0,5.7,153.0,7.7,'11111222,11111222,11111222' 
TCOON,ioos:station:TCOON:005:1,2009-02-07T07:00:00Z,27.6346,-97.2370,0.0,7.6,154.0,10.9,'11111222,11111222,11111222' 
TCOON,ioos:station:TCOON:005:1,2009-02-07T08:00:00Z,27.6346,-97.2370,0.0,7.3,154.0,9.4,'11111222,11111222,11111222' 
TCOON,ioos:station:TCOON:005:1,2009-02-07T09:00:00Z,27.6346,-97.2370,0.0,5.3,149.0,7.4,'11111222,11111222,11111222' 
TCOON,ioos:station:TCOON:005:1,2009-02-07T10:00:00Z,27.6346,-97.2370,0.0,5.1,151.0,8.0,'11111222,11111222,11111222' 
TCOON,ioos:station:TCOON:005:1,2009-02-07T11:00:00Z,27.6346,-97.2370,0.0,5.8,154.0,8.8,'11111222,11111222,11111222' 
TCOON,ioos:station:TCOON:005:1,2009-02-07T12:00:00Z,27.6346,-97.2370,0.0,6.2,152.0,8.4,'11111222,11111222,11111222' 
TCOON,ioos:station:TCOON:005:1,2009-02-07T13:00:00Z,27.6346,-97.2370,0.0,5.8,153.0,8.3,'11111222,11111222,11111222' 
TCOON,ioos:station:TCOON:005:1,2009-02-07T14:00:00Z,27.6346,-97.2370,0.0,7.5,144.0,10.3,'11111222,11111222,11111222' 
TCOON,ioos:station:TCOON:005:1,2009-02-07T15:00:00Z,27.6346,-97.2370,0.0,8.6,147.0,11.4,'11111222,11111222,11111222' 
TCOON,ioos:station:TCOON:005:1,2009-02-07T16:00:00Z,27.6346,-97.2370,0.0,6.9,154.0,10.2,'11111222,11111222,11111222' 
TCOON,ioos:station:TCOON:005:1,2009-02-07T17:00:00Z,27.6346,-97.2370,0.0,9.7,157.0,13.0,'11111222,11111222,11111222' 
TCOON,ioos:station:TCOON:005:1,2009-02-07T18:00:00Z,27.6346,-97.2370,0.0,10.1,151.0,18.2,'11111222,11111222,11111222' 
TCOON,ioos:station:TCOON:005:1,2009-02-07T19:00:00Z,27.6346,-97.2370,0.0,9.8,144.0,13.4,'11111222,11111222,11111222' 
TCOON,ioos:station:TCOON:005:1,2009-02-07T20:00:00Z,27.6346,-97.2370,0.0,7.9,149.0,10.9,'11111222,11111222,11111222' 
TCOON,ioos:station:TCOON:005:1,2009-02-07T21:00:00Z,27.6346,-97.2370,0.0,8.4,147.0,12.2,'11111222,11111222,11111222' 
TCOON,ioos:station:TCOON:005:1,2009-02-07T22:00:00Z,27.6346,-97.2370,0.0,7.0,145.0,9.5,'11111222,11111222,11111222' 
TCOON,ioos:station:TCOON:005:1,2009-02-07T23:00:00Z,27.6346,-97.2370,0.0,7.0,148.0,9.8,'11111222,11111222,11111222' 
TCOON,ioos:station:TCOON:005:1,2009-02-08T00:00:00Z,27.6346,-97.2370,0.0,5.3,139.0,6.6,'11111222,11111222,11111222' 
TCOON,ioos:station:TCOON:005:1,2009-02-08T01:00:00Z,27.6346,-97.2370,0.0,5.2,138.0,6.8,'11111222,11111222,11111222' 
TCOON,ioos:station:TCOON:005:1,2009-02-08T02:00:00Z,27.6346,-97.2370,0.0,5.1,145.0,6.8,'11111222,11111222,11111222' 
TCOON,ioos:station:TCOON:005:1,2009-02-08T03:00:00Z,27.6346,-97.2370,0.0,5.4,144.0,7.5,'11111222,11111222,11111222' 
TCOON,ioos:station:TCOON:005:1,2009-02-08T04:00:00Z,27.6346,-97.2370,0.0,6.1,149.0,8.2,'11111222,11111222,11111222' 
TCOON,ioos:station:TCOON:005:1,2009-02-08T05:00:00Z,27.6346,-97.2370,0.0,5.6,155.0,6.8,'11111222,11111222,11111222' 
TCOON,ioos:station:TCOON:005:1,2009-02-08T06:00:00Z,27.6346,-97.2370,0.0,5.5,146.0,7.5,'11111222,11111222,11111222' 
TCOON,ioos:station:TCOON:005:1,2009-02-08T07:00:00Z,27.6346,-97.2370,0.0,5.6,144.0,7.8,'11111222,11111222,11111222' 
TCOON,ioos:station:TCOON:005:1,2009-02-08T08:00:00Z,27.6346,-97.2370,0.0,5.6,140.0,7.6,'11111222,11111222,11111222' 
TCOON,ioos:station:TCOON:005:1,2009-02-08T09:00:00Z,27.6346,-97.2370,0.0,5.2,143.0,6.6,'11111222,11111222,11111222' 
TCOON,ioos:station:TCOON:005:1,2009-02-08T10:00:00Z,27.6346,-97.2370,0.0,5.5,154.0,7.2,'11111222,11111222,11111222' 
TCOON,ioos:station:TCOON:005:1,2009-02-08T11:00:00Z,27.6346,-97.2370,0.0,4.5,138.0,6.0,'11111222,11111222,11111222' 
TCOON,ioos:station:TCOON:005:1,2009-02-08T12:00:00Z,27.6346,-97.2370,0.0,5.6,143.0,7.5,'11111222,11111222,11111222' 
TCOON,ioos:station:TCOON:005:1,2009-02-08T13:00:00Z,27.6346,-97.2370,0.0,6.0,147.0,8.1,'11111222,11111222,11111222' 
TCOON,ioos:station:TCOON:005:1,2009-02-08T14:00:00Z,27.6346,-97.2370,0.0,6.5,142.0,8.6,'11111222,11111222,11111222' 
TCOON,ioos:station:TCOON:005:1,2009-02-08T15:00:00Z,27.6346,-97.2370,0.0,6.2,142.0,7.5,'11111222,11111222,11111222' 
TCOON,ioos:station:TCOON:005:1,2009-02-08T16:00:00Z,27.6346,-97.2370,0.0,7.0,140.0,8.8,'11111222,11111222,11111222' 
TCOON,ioos:station:TCOON:005:1,2009-02-08T17:00:00Z,27.6346,-97.2370,0.0,7.1,153.0,10.0,'11111222,11111222,11111222' 
TCOON,ioos:station:TCOON:005:1,2009-02-08T18:00:00Z,27.6346,-97.2370,0.0,5.9,146.0,9.6,'11111222,11111222,11111222' 
TCOON,ioos:station:TCOON:005:1,2009-02-08T19:00:00Z,27.6346,-97.2370,0.0,7.0,131.0,8.8,'11111222,11111222,11111222' 
TCOON,ioos:station:TCOON:005:1,2009-02-08T20:00:00Z,27.6346,-97.2370,0.0,7.5,143.0,9.4,'11111222,11111222,11111222' 
TCOON,ioos:station:TCOON:005:1,2009-02-08T21:00:00Z,27.6346,-97.2370,0.0,7.1,138.0,9.8,'11111222,11111222,11111222' 
TCOON,ioos:station:TCOON:005:1,2009-02-08T22:00:00Z,27.6346,-97.2370,0.0,8.2,140.0,11.6,'11111222,11111222,11111222' 
TCOON,ioos:station:TCOON:005:1,2009-02-08T23:00:00Z,27.6346,-97.2370,0.0,6.9,136.0,11.0,'11111222,11111222,11111222' 
TCOON,ioos:station:TCOON:005:1,2009-02-09T00:00:00Z,27.6346,-97.2370,0.0,7.3,141.0,10.8,'11111222,11111222,11111222' 
TCOON,ioos:station:TCOON:005:1,2009-02-09T01:00:00Z,27.6346,-97.2370,0.0,7.9,136.0,10.3,'11111222,11111222,11111222' 
TCOON,ioos:station:TCOON:005:1,2009-02-09T02:00:00Z,27.6346,-97.2370,0.0,7.4,140.0,10.4,'11111222,11111222,11111222' 
TCOON,ioos:station:TCOON:005:1,2009-02-09T03:00:00Z,27.6346,-97.2370,0.0,8.0,141.0,10.6,'11111222,11111222,11111222' 
TCOON,ioos:station:TCOON:005:1,2009-02-09T04:00:00Z,27.6346,-97.2370,0.0,8.7,143.0,12.4,'11111222,11111222,11111222' 
TCOON,ioos:station:TCOON:005:1,2009-02-09T05:00:00Z,27.6346,-97.2370,0.0,7.1,153.0,11.3,'11111222,11111222,11111222' 
TCOON,ioos:station:TCOON:005:1,2009-02-09T06:00:00Z,27.6346,-97.2370,0.0,6.9,154.0,9.6,'11111222,11111222,11111222' 
TCOON,ioos:station:TCOON:005:1,2009-02-09T07:00:00Z,27.6346,-97.2370,0.0,7.6,153.0,10.1,'11111222,11111222,11111222' 
TCOON,ioos:station:TCOON:005:1,2009-02-09T08:00:00Z,27.6346,-97.2370,0.0,8.3,146.0,12.8,'11111222,11111222,11111222' 
TCOON,ioos:station:TCOON:005:1,2009-02-09T09:00:00Z,27.6346,-97.2370,0.0,8.4,151.0,11.4,'11111222,11111222,11111222' 
TCOON,ioos:station:TCOON:005:1,2009-02-09T10:00:00Z,27.6346,-97.2370,0.0,8.0,151.0,10.9,'11111222,11111222,11111222' 
TCOON,ioos:station:TCOON:005:1,2009-02-09T11:00:00Z,27.6346,-97.2370,0.0,8.6,153.0,11.7,'11111222,11111222,11111222' 
TCOON,ioos:station:TCOON:005:1,2009-02-09T12:00:00Z,27.6346,-97.2370,0.0,5.5,154.0,7.3,'11111222,11111222,11111222' 